RADUGA 32 1 23448U 94087A 10210.08101999 -.00000068 +00000-0 +10000-3 0 02914 2 23448 011.1029 047.7437 0004569 117.0563 243.0754 01.00262900074765 RADUGA 1-4 1 25642U 99010A 10210.22691922 .00000147 00000-0 00000+0 0 3855 2 25642 009.8419 063.2199 0002660 119.7020 240.4093 01.00280738 41800 RADUGA 1-5 1 26477U 00049A 10211.63906654 -.00000270 00000-0 10000-3 0 8930 2 26477 007.4732 062.0203 0001942 358.2600 214.1419 01.00224257 36323 RADUGA 1-6 1 26936U 01045A 10209.26740199 -.00000108 +00000-0 +10000-3 0 00384 2 26936 006.7541 066.8647 0016678 042.8100 317.4035 00.97745099031862 RADUGA 1-7 1 28194U 04010A 10211.76875230 -.00000341 00000-0 10000-3 0 2123 2 28194 004.8235 077.6148 0000658 018.6522 256.7765 01.00281082 23234 RADUGA 1M-1 1 32373U 07058A 10210.64771931 -.00000039 +00000-0 +10000-3 0 07614 2 32373 000.0199 083.3084 0003460 029.9164 137.1202 01.00272632010559